Content
SEND FEEDBACK

Daily
Averages
Monthly
Summary
United States of America

AGAT, GUAM


Home > North America > United States > Guam
Elevation: 110 meters     Latitude: 13 33N     Longitude: 144 50E

WEATHER
 
SELECT A DAY
Number of Records: 209,379;   Date Range: 1/1/95 - 9/21/14
 
SHARE

PRINT THIS DATA

[ ← Previous Day ]
WEATHER ALMANAC - 11 JANUARY, 2013
[ Next Day → ]
[ °F ]   °C
Weather ElementAverageHighLow
Temperature27.3 °C30.6 °C (12:54 pm)25.6 °C (3:54 am)
Dewpoint22.6 °C23.3 °C (7:54 pm)21.7 °C (9:54 am)
Humidity75.3 %84 % (3:54 am)63 % (10:54 am)
Barometer1011.2 hPa1012.9 hPa (8:54 am)1009.8 hPa (2:54 am)
Wind Speed22.4 km/h33.3 km/h (9:54 am)
Wind Gust44.4 km/h (12:54 pm)
Weather ElementAverage
Visibility16.1 km
Wind DirectionENE (77 °)

Weather ElementTotal
Precipitation0.25 mm
Cooling Degree Days9.8 (Base 18.3)
Growing Degree Days18.1 (Base 10)
Averaged from 23 records on 11 January, 2013
WEATHER CONDITIONS BREAKOUT
WIND DIRECTION BREAKOUT
WEATHER BY HOUR - 11 JANUARY, 2013
[ °F ]   °C
Local TimeTemperatureDewpointHumidityBarometerVisibilityWind DirectionWind SpeedGust SpeedPrecipitationEventsConditions
1:54 AM26.1 °C22.8 °C82 %1010.2 hPa16.1 kmEast (90°)20.4 km/hPartly Cloudy
2:54 AM26.1 °C22.8 °C82 %1009.8 hPa16.1 kmEast (90°)16.7 km/hClear
3:54 AM25.6 °C22.8 °C84 %1009.8 hPa16.1 kmEast (80°)18.5 km/hPartly Cloudy
4:54 AM26.1 °C22.8 °C82 %1009.8 hPa16.1 kmEast (90°)18.5 km/hClear
5:54 AM25.6 °C22.2 °C81 %1010.5 hPa16.1 kmEast (80°)20.4 km/h29.6 km/hClear
6:54 AM26.1 °C22.2 °C79 %1011.2 hPa16.1 kmENE (70°)20.4 km/hClear
7:54 AM26.7 °C22.8 °C79 %1012.2 hPa16.1 kmENE (70°)22.2 km/hScattered Clouds
8:54 AM27.8 °C22.2 °C71 %1012.9 hPa16.1 kmENE (70°)22.2 km/h35.2 km/hPartly Cloudy
9:54 AM28.3 °C21.7 °C67 %1012.5 hPa16.1 kmENE (70°)33.3 km/h40.7 km/hPartly Cloudy
10:54 AM29.4 °C21.7 °C63 %1012.5 hPa16.1 kmEast (80°)29.6 km/h40.7 km/hClear
11:54 AM30 °C22.2 °C63 %1011.5 hPa16.1 kmENE (60°)33.3 km/h42.6 km/hPartly Cloudy
12:54 PM30.6 °C22.8 °C63 %1010.8 hPa16.1 kmEast (90°)29.6 km/h44.4 km/hScattered Clouds
1:54 PM29.4 °C22.8 °C67 %1010.2 hPa16.1 kmEast (100°)27.8 km/h40.7 km/hScattered Clouds
2:54 PM29.4 °C22.8 °C67 %1009.8 hPa16.1 kmEast (80°)27.8 km/h38.9 km/hScattered Clouds
3:54 PM28.9 °C22.8 °C69 %1010.2 hPa16.1 kmENE (70°)25.9 km/hScattered Clouds
4:54 PM28.3 °C22.8 °C72 %1010.8 hPa16.1 kmEast (80°)22.2 km/h31.5 km/hScattered Clouds
5:54 PM27.2 °C22.8 °C77 %1011.2 hPa16.1 kmENE (70°)20.4 km/hScattered Clouds
6:54 PM26.7 °C22.2 °C76 %1011.5 hPa16.1 kmENE (70°)13 km/hScattered Clouds
7:54 PM26.1 °C23.3 °C84 %1011.9 hPa16.1 kmENE (60°)18.5 km/h0 mmScattered Clouds
8:54 PM26.1 °C22.8 °C82 %1012.2 hPa16.1 kmENE (70°)20.4 km/h0 mmScattered Clouds
9:54 PM26.1 °C22.2 °C79 %1012.5 hPa16.1 kmEast (80°)20.4 km/hScattered Clouds
10:54 PM26.7 °C22.8 °C79 %1012.9 hPa16.1 kmENE (70°)14.8 km/hScattered Clouds
11:54 PM25.6 °C22.8 °C84 %1012.9 hPa16.1 kmEast (80°)16.7 km/h0.25 mmScattered Clouds
Hourly data recorded from PGUM, located 0 kilometers away from Agat, Guam







STORIES FROM OUR PARTNERS